Tracking 19827 objects as of 21-Aug-2019
HD Live streaming from Space Station
objects crossing your sky now

EKRAN 15

Track EKRAN 15 now!
EKRAN 15 is classified as:


NORAD ID: 16729
Int'l Code: 1986-038A
Perigee: 36,821.0 km
Apogee: 36,921.7 km
Inclination: 15.2 °
Period: 1,491.5 minutes
Semi major axis: 43242 km
RCS: 5.2216 m2 (large)
Launch date: May 24, 1986
Source: Commonwealth of Independent States (former USSR) (CIS)
Launch site: TYURATAM MISSILE AND SPACE COMPLEX (TTMTR)
aabbcc
Your satellite tracking list
Your tracking list is empty




NASA's NSSDC Master Catalog

Two Line Element Set (TLE):
1 16729U 86038A   19232.73969656 -.00000152  00000-0  00000+0 0  9996
2 16729  15.2473 341.9094 0011652 323.0032  66.0137  0.96547023 94289
Source of the keplerian elements: AFSPC